Time,TemperatureF,DewpointF,PressureIn,WindDirection,WindDirectionDegrees,WindSpeedMPH,WindSpeedGustMPH,Humidity,HourlyPrecipIn,Conditions,Clouds,dailyrainin,SoftwareType,DateUTC
2013-08-31 00:02:00,74.9,71.1,29.93,SSW,194,0.0,0.0,88,0.00,,,0.00,Wunderground v.1.15,2013-08-31 04:02:00,
2013-08-31 00:04:00,74.8,70.7,29.93,SSW,194,0.0,0.0,87,0.00,,,0.00,Wunderground v.1.15,2013-08-31 04:04:00,
2013-08-31 00:06:00,74.7,70.9,29.93,SSW,194,0.0,0.0,88,0.00,,,0.00,Wunderground v.1.15,2013-08-31 04:06:00,
2013-08-31 00:08:00,74.6,70.8,29.93,SSW,194,0.0,0.0,88,0.00,,,0.00,Wunderground v.1.15,2013-08-31 04:08:00,
2013-08-31 00:14:00,74.8,71.7,29.92,SSW,211,0.0,1.0,90,0.00,,,0.00,Wunderground v.1.15,2013-08-31 04:14:00,
2013-08-31 00:20:00,75.0,71.9,29.92,South,183,1.0,1.0,90,0.00,,,0.00,Wunderground v.1.15,2013-08-31 04:20:00,
2013-08-31 00:26:00,75.1,72.0,29.92,South,187,1.0,2.0,90,0.00,,,0.00,Wunderground v.1.15,2013-08-31 04:26:00,
2013-08-31 00:32:00,75.1,72.0,29.92,South,191,2.0,2.0,90,0.00,,,0.00,Wunderground v.1.15,2013-08-31 04:32:00,
2013-08-31 00:38:00,75.2,72.4,29.92,South,184,2.0,2.0,91,0.00,,,0.00,Wunderground v.1.15,2013-08-31 04:38:00,
2013-08-31 00:44:00,75.1,72.3,29.92,South,190,2.0,2.0,91,0.00,,,0.00,Wunderground v.1.15,2013-08-31 04:44:00,
2013-08-31 00:50:00,75.0,72.2,29.92,South,190,1.0,1.0,91,0.00,,,0.00,Wunderground v.1.15,2013-08-31 04:50:00,
2013-08-31 00:56:00,75.0,72.2,29.92,SSW,194,1.0,2.0,91,0.00,,,0.00,Wunderground v.1.15,2013-08-31 04:56:00,
2013-08-31 01:02:00,74.9,72.1,29.92,SSW,197,1.0,1.0,91,0.00,,,0.00,Wunderground v.1.15,2013-08-31 05:02:00,
2013-08-31 01:08:00,74.9,72.1,29.92,SSW,193,0.0,1.0,91,0.00,,,0.00,Wunderground v.1.15,2013-08-31 05:08:00,
2013-08-31 01:12:00,74.8,72.0,29.92,South,187,1.0,2.0,91,0.00,,,0.00,Wunderground v.1.15,2013-08-31 05:12:00,
2013-08-31 01:18:00,74.7,72.2,29.92,SSE,154,1.0,2.0,92,0.00,,,0.00,Wunderground v.1.15,2013-08-31 05:18:00,
2013-08-31 01:24:00,74.7,72.2,29.92,South,191,1.0,1.0,92,0.00,,,0.00,Wunderground v.1.15,2013-08-31 05:24:00,
2013-08-31 01:30:00,74.6,72.1,29.92,South,172,0.0,1.0,92,0.00,,,0.00,Wunderground v.1.15,2013-08-31 05:30:00,
2013-08-31 01:36:00,74.5,72.0,29.92,SSE,167,0.0,1.0,92,0.00,,,0.00,Wunderground v.1.15,2013-08-31 05:36:00,
2013-08-31 01:42:00,74.4,71.9,29.92,South,170,0.0,1.0,92,0.00,,,0.00,Wunderground v.1.15,2013-08-31 05:42:00,
2013-08-31 01:48:00,74.4,71.9,29.92,South,174,0.0,1.0,92,0.00,,,0.00,Wunderground v.1.15,2013-08-31 05:48:00,
2013-08-31 01:54:00,74.3,71.8,29.92,SSE,163,0.0,1.0,92,0.00,,,0.00,Wunderground v.1.15,2013-08-31 05:54:00,
2013-08-31 02:00:00,74.2,71.7,29.92,South,174,0.0,1.0,92,0.00,,,0.00,Wunderground v.1.15,2013-08-31 06:00:00,
2013-08-31 02:06:00,74.2,71.7,29.92,South,187,0.0,1.0,92,0.00,,,0.00,Wunderground v.1.15,2013-08-31 06:06:00,
2013-08-31 02:12:00,74.1,71.9,29.92,South,174,0.0,1.0,93,0.00,,,0.00,Wunderground v.1.15,2013-08-31 06:12:00,
2013-08-31 02:18:00,74.1,71.9,29.92,South,169,0.0,1.0,93,0.00,,,0.00,Wunderground v.1.15,2013-08-31 06:18:00,
2013-08-31 02:24:00,74.1,71.9,29.92,South,171,0.0,1.0,93,0.00,,,0.00,Wunderground v.1.15,2013-08-31 06:24:00,
2013-08-31 02:30:00,74.1,71.9,29.92,ESE,110,0.0,1.0,93,0.00,,,0.00,Wunderground v.1.15,2013-08-31 06:30:00,
2013-08-31 02:36:00,74.1,71.9,29.92,SE,131,1.0,1.0,93,0.00,,,0.00,Wunderground v.1.15,2013-08-31 06:36:00,
2013-08-31 02:42:00,74.2,72.0,29.92,SSE,151,1.0,1.0,93,0.00,,,0.00,Wunderground v.1.15,2013-08-31 06:42:00,
2013-08-31 02:48:00,74.2,71.7,29.92,SE,143,1.0,1.0,92,0.00,,,0.00,Wunderground v.1.15,2013-08-31 06:48:00,
2013-08-31 02:54:00,74.1,71.6,29.92,SSE,148,1.0,1.0,92,0.00,,,0.00,Wunderground v.1.15,2013-08-31 06:54:00,
2013-08-31 03:00:00,74.1,71.6,29.92,SSE,155,1.0,1.0,92,0.00,,,0.00,Wunderground v.1.15,2013-08-31 07:00:00,
2013-08-31 03:06:00,74.0,71.5,29.92,SSE,160,0.0,1.0,92,0.00,,,0.00,Wunderground v.1.15,2013-08-31 07:06:00,
2013-08-31 03:12:00,73.9,71.4,29.92,SSE,160,0.0,1.0,92,0.00,,,0.00,Wunderground v.1.15,2013-08-31 07:12:00,
2013-08-31 03:18:00,73.9,71.4,29.92,SSE,160,0.0,1.0,92,0.00,,,0.00,Wunderground v.1.15,2013-08-31 07:18:00,
2013-08-31 03:24:00,73.8,71.3,29.92,SSE,156,0.0,1.0,92,0.00,,,0.00,Wunderground v.1.15,2013-08-31 07:24:00,
2013-08-31 03:30:00,73.8,71.6,29.91,SSE,150,0.0,1.0,93,0.00,,,0.00,Wunderground v.1.15,2013-08-31 07:30:00,
2013-08-31 03:36:00,73.5,71.4,29.91,SSE,153,0.0,1.0,93,0.00,,,0.00,Wunderground v.1.15,2013-08-31 07:36:00,
2013-08-31 03:42:00,73.4,71.3,29.92,SSE,150,0.0,1.0,93,0.00,,,0.00,Wunderground v.1.15,2013-08-31 07:42:00,
2013-08-31 03:48:00,73.1,71.0,29.92,SSE,150,0.0,1.0,93,0.00,,,0.00,Wunderground v.1.15,2013-08-31 07:48:00,
2013-08-31 03:54:00,73.2,71.4,29.92,SSE,166,0.0,1.0,94,0.00,,,0.00,Wunderground v.1.15,2013-08-31 07:54:00,
2013-08-31 04:00:00,73.2,71.1,29.92,SSE,168,0.0,1.0,93,0.00,,,0.00,Wunderground v.1.15,2013-08-31 08:00:00,
2013-08-31 04:06:00,73.1,71.0,29.91,SE,136,1.0,2.0,93,0.00,,,0.00,Wunderground v.1.15,2013-08-31 08:06:00,
2013-08-31 04:12:00,72.7,70.6,29.91,SSE,162,1.0,1.0,93,0.00,,,0.00,Wunderground v.1.15,2013-08-31 08:12:00,
2013-08-31 04:18:00,72.7,70.9,29.91,SE,145,0.0,1.0,94,0.00,,,0.00,Wunderground v.1.15,2013-08-31 08:18:00,
2013-08-31 04:24:00,72.7,70.9,29.91,South,172,0.0,1.0,94,0.00,,,0.00,Wunderground v.1.15,2013-08-31 08:24:00,
2013-08-31 04:30:00,72.7,70.9,29.91,SW,217,0.0,1.0,94,0.00,,,0.00,Wunderground v.1.15,2013-08-31 08:30:00,
2013-08-31 04:36:00,72.6,70.8,29.92,SSW,197,0.0,1.0,94,0.00,,,0.00,Wunderground v.1.15,2013-08-31 08:36:00,
2013-08-31 04:42:00,72.5,70.7,29.92,SSW,197,0.0,1.0,94,0.00,,,0.00,Wunderground v.1.15,2013-08-31 08:42:00,
2013-08-31 04:48:00,72.6,71.1,29.92,SSW,197,0.0,1.0,95,0.00,,,0.00,Wunderground v.1.15,2013-08-31 08:48:00,
2013-08-31 04:54:00,72.7,71.2,29.92,South,191,0.0,1.0,95,0.00,,,0.01,Wunderground v.1.15,2013-08-31 08:54:00,
2013-08-31 05:00:00,73.0,71.5,29.92,SE,133,0.0,1.0,95,0.12,,,0.02,Wunderground v.1.15,2013-08-31 09:00:00,
2013-08-31 05:06:00,73.1,71.3,29.92,SSE,159,0.0,1.0,94,0.07,,,0.02,Wunderground v.1.15,2013-08-31 09:06:00,
2013-08-31 05:12:00,73.2,71.7,29.92,SSE,159,0.0,1.0,95,0.04,,,0.02,Wunderground v.1.15,2013-08-31 09:12:00,
2013-08-31 05:18:00,73.1,71.3,29.92,SSE,159,0.0,1.0,94,0.00,,,0.02,Wunderground v.1.15,2013-08-31 09:18:00,
2013-08-31 05:24:00,73.1,71.3,29.92,SSE,163,0.0,1.0,94,0.00,,,0.02,Wunderground v.1.15,2013-08-31 09:24:00,
2013-08-31 05:30:00,73.2,71.4,29.91,SSE,163,0.0,1.0,94,0.00,,,0.02,Wunderground v.1.15,2013-08-31 09:30:00,
2013-08-31 05:36:00,73.2,71.4,29.91,SSE,154,0.0,1.0,94,0.00,,,0.02,Wunderground v.1.15,2013-08-31 09:36:00,
2013-08-31 05:42:00,73.2,71.4,29.92,South,177,0.0,1.0,94,0.00,,,0.02,Wunderground v.1.15,2013-08-31 09:42:00,
2013-08-31 05:48:00,73.2,71.4,29.92,South,176,0.0,1.0,94,0.00,,,0.02,Wunderground v.1.15,2013-08-31 09:48:00,
2013-08-31 05:54:00,73.3,71.5,29.92,South,179,0.0,1.0,94,0.00,,,0.02,Wunderground v.1.15,2013-08-31 09:54:00,
2013-08-31 06:00:00,73.3,71.5,29.92,SE,140,0.0,1.0,94,0.00,,,0.02,Wunderground v.1.15,2013-08-31 10:00:00,
2013-08-31 06:06:00,73.3,71.5,29.92,SE,138,0.0,1.0,94,0.00,,,0.02,Wunderground v.1.15,2013-08-31 10:06:00,
2013-08-31 06:12:00,73.2,71.4,29.93,SE,139,0.0,1.0,94,0.00,,,0.02,Wunderground v.1.15,2013-08-31 10:12:00,
2013-08-31 06:18:00,73.2,71.4,29.92,South,170,0.0,1.0,94,0.00,,,0.02,Wunderground v.1.15,2013-08-31 10:18:00,
2013-08-31 06:24:00,73.1,71.3,29.92,South,171,0.0,1.0,94,0.00,,,0.02,Wunderground v.1.15,2013-08-31 10:24:00,
2013-08-31 06:30:00,73.1,71.3,29.92,SSE,155,0.0,1.0,94,0.00,,,0.02,Wunderground v.1.15,2013-08-31 10:30:00,
2013-08-31 06:36:00,73.0,71.5,29.92,SE,142,0.0,1.0,95,0.00,,,0.02,Wunderground v.1.15,2013-08-31 10:36:00,
2013-08-31 06:42:00,72.9,71.4,29.92,SE,129,1.0,1.0,95,0.00,,,0.02,Wunderground v.1.15,2013-08-31 10:42:00,
2013-08-31 06:48:00,73.0,71.5,29.93,SSE,156,1.0,3.0,95,0.00,,,0.02,Wunderground v.1.15,2013-08-31 10:48:00,
2013-08-31 06:54:00,73.1,71.3,29.93,South,177,2.0,2.0,94,0.00,,,0.02,Wunderground v.1.15,2013-08-31 10:54:00,
2013-08-31 07:00:00,73.1,71.3,29.92,South,174,2.0,3.0,94,0.00,,,0.02,Wunderground v.1.15,2013-08-31 11:00:00,
2013-08-31 07:06:00,73.2,71.4,29.93,South,191,3.0,5.0,94,0.00,,,0.02,Wunderground v.1.15,2013-08-31 11:06:00,
2013-08-31 07:12:00,73.2,71.4,29.93,SSW,207,3.0,3.0,94,0.00,,,0.02,Wunderground v.1.15,2013-08-31 11:12:00,
2013-08-31 07:18:00,72.9,71.1,29.93,SW,217,2.0,4.0,94,0.00,,,0.02,Wunderground v.1.15,2013-08-31 11:18:00,
2013-08-31 07:24:00,72.7,70.9,29.93,SSW,197,3.0,3.0,94,0.00,,,0.02,Wunderground v.1.15,2013-08-31 11:24:00,
2013-08-31 07:30:00,72.8,71.0,29.93,SSW,212,2.0,2.0,94,0.00,,,0.02,Wunderground v.1.15,2013-08-31 11:30:00,
2013-08-31 07:36:00,72.8,71.0,29.94,South,190,1.0,2.0,94,0.00,,,0.02,Wunderground v.1.15,2013-08-31 11:36:00,
2013-08-31 07:42:00,72.7,70.9,29.94,SSE,152,0.0,1.0,94,0.00,,,0.02,Wunderground v.1.15,2013-08-31 11:42:00,
2013-08-31 07:48:00,72.8,71.0,29.94,SSE,163,1.0,2.0,94,0.00,,,0.02,Wunderground v.1.15,2013-08-31 11:48:00,
2013-08-31 07:54:00,72.7,70.9,29.94,South,182,1.0,1.0,94,0.00,,,0.02,Wunderground v.1.15,2013-08-31 11:54:00,
2013-08-31 08:00:00,72.6,70.8,29.94,South,184,0.0,1.0,94,0.00,,,0.02,Wunderground v.1.15,2013-08-31 12:00:00,
2013-08-31 08:06:00,72.6,70.8,29.94,South,179,1.0,2.0,94,0.00,,,0.02,Wunderground v.1.15,2013-08-31 12:06:00,
2013-08-31 08:12:00,72.6,70.8,29.95,SSE,163,1.0,1.0,94,0.00,,,0.02,Wunderground v.1.15,2013-08-31 12:12:00,
2013-08-31 08:18:00,72.7,70.9,29.95,East,101,0.0,1.0,94,0.00,,,0.02,Wunderground v.1.15,2013-08-31 12:18:00,
2013-08-31 08:24:00,72.8,71.0,29.95,South,177,1.0,3.0,94,0.00,,,0.02,Wunderground v.1.15,2013-08-31 12:24:00,
2013-08-31 08:30:00,72.8,71.0,29.95,South,174,2.0,2.0,94,0.00,,,0.02,Wunderground v.1.15,2013-08-31 12:30:00,
2013-08-31 08:36:00,72.8,71.0,29.95,South,177,2.0,3.0,94,0.00,,,0.02,Wunderground v.1.15,2013-08-31 12:36:00,
2013-08-31 08:42:00,72.9,71.1,29.95,SE,138,1.0,2.0,94,0.00,,,0.02,Wunderground v.1.15,2013-08-31 12:42:00,
2013-08-31 08:48:00,73.0,71.2,29.95,ESE,117,1.0,2.0,94,0.00,,,0.02,Wunderground v.1.15,2013-08-31 12:48:00,
2013-08-31 08:54:00,73.2,71.4,29.95,SE,132,1.0,1.0,94,0.00,,,0.02,Wunderground v.1.15,2013-08-31 12:54:00,
2013-08-31 09:00:00,73.3,71.5,29.95,SE,134,2.0,2.0,94,0.00,,,0.02,Wunderground v.1.15,2013-08-31 13:00:00,
2013-08-31 09:06:00,73.5,71.7,29.95,South,181,2.0,3.0,94,0.00,,,0.02,Wunderground v.1.15,2013-08-31 13:06:00,
2013-08-31 09:12:00,73.6,71.8,29.96,East,97,1.0,1.0,94,0.00,,,0.02,Wunderground v.1.15,2013-08-31 13:12:00,
2013-08-31 09:18:00,73.8,72.0,29.96,SSE,158,1.0,1.0,94,0.00,,,0.02,Wunderground v.1.15,2013-08-31 13:18:00,
2013-08-31 09:24:00,74.0,71.8,29.96,SE,141,1.0,3.0,93,0.00,,,0.02,Wunderground v.1.15,2013-08-31 13:24:00,
2013-08-31 09:30:00,74.4,72.2,29.95,SE,132,2.0,4.0,93,0.00,,,0.02,Wunderground v.1.15,2013-08-31 13:30:00,
2013-08-31 09:36:00,74.9,72.4,29.95,SE,128,3.0,5.0,92,0.00,,,0.02,Wunderground v.1.15,2013-08-31 13:36:00,
2013-08-31 09:42:00,75.3,72.8,29.95,SSE,159,4.0,5.0,92,0.00,,,0.02,Wunderground v.1.15,2013-08-31 13:42:00,
2013-08-31 09:48:00,75.7,72.9,29.95,South,174,5.0,6.0,91,0.00,,,0.02,Wunderground v.1.15,2013-08-31 13:48:00,
2013-08-31 09:54:00,75.9,73.1,29.95,SSE,166,4.0,5.0,91,0.00,,,0.02,Wunderground v.1.15,2013-08-31 13:54:00,
2013-08-31 10:00:00,76.1,73.3,29.94,SSE,160,3.0,3.0,91,0.00,,,0.02,Wunderground v.1.15,2013-08-31 14:00:00,
2013-08-31 10:06:00,76.1,73.0,29.94,SSE,148,4.0,7.0,90,0.00,,,0.02,Wunderground v.1.15,2013-08-31 14:06:00,
2013-08-31 10:12:00,76.2,73.1,29.94,SE,128,5.0,7.0,90,0.00,,,0.02,Wunderground v.1.15,2013-08-31 14:12:00,
2013-08-31 10:18:00,76.3,73.1,29.94,SE,131,6.0,7.0,90,0.00,,,0.02,Wunderground v.1.15,2013-08-31 14:18:00,
2013-08-31 10:24:00,76.5,73.3,29.94,SSW,201,4.0,5.0,90,0.00,,,0.02,Wunderground v.1.15,2013-08-31 14:24:00,
2013-08-31 10:30:00,76.6,73.1,29.94,South,191,3.0,5.0,89,0.00,,,0.02,Wunderground v.1.15,2013-08-31 14:30:00,
2013-08-31 10:36:00,76.8,73.3,29.95,South,184,4.0,5.0,89,0.00,,,0.02,Wunderground v.1.15,2013-08-31 14:36:00,
2013-08-31 10:42:00,77.0,73.2,29.94,SSW,207,3.0,7.0,88,0.00,,,0.02,Wunderground v.1.15,2013-08-31 14:42:00,
2013-08-31 10:48:00,77.1,73.3,29.95,South,188,5.0,7.0,88,0.00,,,0.02,Wunderground v.1.15,2013-08-31 14:48:00,
2013-08-31 10:54:00,77.2,73.4,29.95,South,179,6.0,7.0,88,0.00,,,0.02,Wunderground v.1.15,2013-08-31 14:54:00,
2013-08-31 11:00:00,77.4,73.6,29.95,SSW,195,5.0,5.0,88,0.00,,,0.02,Wunderground v.1.15,2013-08-31 15:00:00,
2013-08-31 11:06:00,77.5,73.3,29.95,SW,217,4.0,6.0,87,0.00,,,0.02,Wunderground v.1.15,2013-08-31 15:06:00,
2013-08-31 11:12:00,77.7,73.5,29.95,South,181,4.0,5.0,87,0.00,,,0.02,Wunderground v.1.15,2013-08-31 15:12:00,
2013-08-31 11:18:00,78.2,74.0,29.95,SSW,193,3.0,5.0,87,0.00,,,0.02,Wunderground v.1.15,2013-08-31 15:18:00,
2013-08-31 11:24:00,79.2,74.6,29.95,SSE,168,3.0,3.0,86,0.00,,,0.02,Wunderground v.1.15,2013-08-31 15:24:00,
2013-08-31 11:30:00,79.6,74.7,29.95,South,189,4.0,8.0,85,0.00,,,0.02,Wunderground v.1.15,2013-08-31 15:30:00,
2013-08-31 11:36:00,79.6,74.3,29.95,South,177,4.0,8.0,84,0.00,,,0.02,Wunderground v.1.15,2013-08-31 15:36:00,
2013-08-31 11:42:00,79.6,74.3,29.95,SSW,195,4.0,6.0,84,0.00,,,0.02,Wunderground v.1.15,2013-08-31 15:42:00,
2013-08-31 11:48:00,79.8,74.5,29.95,SSW,194,4.0,7.0,84,0.00,,,0.02,Wunderground v.1.15,2013-08-31 15:48:00,
2013-08-31 11:54:00,79.6,74.0,29.94,South,186,6.0,7.0,83,0.00,,,0.02,Wunderground v.1.15,2013-08-31 15:54:00,
2013-08-31 12:00:00,80.0,74.4,29.94,SSE,159,4.0,4.0,83,0.00,,,0.02,Wunderground v.1.15,2013-08-31 16:00:00,
2013-08-31 12:06:00,80.5,74.5,29.94,SSE,163,4.0,4.0,82,0.00,,,0.02,Wunderground v.1.15,2013-08-31 16:06:00,
2013-08-31 12:12:00,80.7,74.3,29.94,South,179,5.0,9.0,81,0.00,,,0.02,Wunderground v.1.15,2013-08-31 16:12:00,
2013-08-31 12:18:00,81.0,75.0,29.94,South,170,5.0,9.0,82,0.00,,,0.02,Wunderground v.1.15,2013-08-31 16:18:00,
2013-08-31 12:24:00,81.2,74.4,29.94,South,170,4.0,6.0,80,0.00,,,0.02,Wunderground v.1.15,2013-08-31 16:24:00,
2013-08-31 12:30:00,81.8,75.4,29.94,SSE,159,4.0,4.0,81,0.00,,,0.02,Wunderground v.1.15,2013-08-31 16:30:00,
2013-08-31 12:36:00,82.5,74.9,29.94,SSW,210,3.0,6.0,78,0.00,,,0.02,Wunderground v.1.15,2013-08-31 16:36:00,
2013-08-31 12:42:00,82.1,74.2,29.93,SSW,202,5.0,6.0,77,0.00,,,0.02,Wunderground v.1.15,2013-08-31 16:42:00,
2013-08-31 12:48:00,82.1,74.6,29.93,SSW,205,6.0,7.0,78,0.00,,,0.02,Wunderground v.1.15,2013-08-31 16:48:00,
2013-08-31 12:54:00,82.6,74.7,29.93,South,169,5.0,6.0,77,0.00,,,0.02,Wunderground v.1.15,2013-08-31 16:54:00,
2013-08-31 13:00:00,82.9,74.6,29.93,South,177,5.0,7.0,76,0.00,,,0.02,Wunderground v.1.15,2013-08-31 17:00:00,
2013-08-31 13:06:00,82.8,74.8,29.93,SW,219,6.0,7.0,77,0.00,,,0.02,Wunderground v.1.15,2013-08-31 17:06:00,
2013-08-31 13:12:00,82.8,74.5,29.93,SE,143,6.0,6.0,76,0.00,,,0.02,Wunderground v.1.15,2013-08-31 17:12:00,
2013-08-31 13:18:00,83.3,74.9,29.92,SW,228,5.0,6.0,76,0.00,,,0.02,Wunderground v.1.15,2013-08-31 17:18:00,
2013-08-31 13:24:00,83.2,74.8,29.92,WSW,245,3.0,4.0,76,0.00,,,0.02,Wunderground v.1.15,2013-08-31 17:24:00,
2013-08-31 13:30:00,83.5,74.7,29.92,SSW,195,3.0,6.0,75,0.00,,,0.02,Wunderground v.1.15,2013-08-31 17:30:00,
2013-08-31 13:36:00,83.5,74.3,29.92,South,181,4.0,6.0,74,0.00,,,0.02,Wunderground v.1.15,2013-08-31 17:36:00,
2013-08-31 13:42:00,83.5,75.1,29.92,South,184,4.0,4.0,76,0.00,,,0.02,Wunderground v.1.15,2013-08-31 17:42:00,
2013-08-31 13:48:00,84.0,74.4,29.91,South,185,4.0,6.0,73,0.00,,,0.02,Wunderground v.1.15,2013-08-31 17:48:00,
2013-08-31 13:54:00,84.7,75.9,29.91,South,183,4.0,5.0,75,0.00,,,0.02,Wunderground v.1.15,2013-08-31 17:54:00,
2013-08-31 14:00:00,85.0,75.0,29.91,SE,139,3.0,4.0,72,0.00,,,0.02,Wunderground v.1.15,2013-08-31 18:00:00,
2013-08-31 14:06:00,85.2,75.6,29.91,ENE,75,4.0,4.0,73,0.00,,,0.02,Wunderground v.1.15,2013-08-31 18:06:00,
2013-08-31 14:12:00,85.3,75.2,29.90,ENE,73,4.0,5.0,72,0.00,,,0.02,Wunderground v.1.15,2013-08-31 18:12:00,
2013-08-31 14:18:00,84.3,75.1,29.90,East,84,5.0,7.0,74,0.00,,,0.02,Wunderground v.1.15,2013-08-31 18:18:00,
2013-08-31 14:24:00,83.7,74.1,29.90,NE,56,6.0,8.0,73,0.00,,,0.02,Wunderground v.1.15,2013-08-31 18:24:00,
2013-08-31 14:30:00,83.8,75.8,29.90,NE,42,4.0,4.0,77,0.00,,,0.02,Wunderground v.1.15,2013-08-31 18:30:00,
2013-08-31 14:36:00,85.0,75.8,29.90,SW,224,3.0,9.0,74,0.00,,,0.02,Wunderground v.1.15,2013-08-31 18:36:00,
2013-08-31 14:42:00,85.0,74.1,29.89,SSW,211,5.0,5.0,70,0.00,,,0.02,Wunderground v.1.15,2013-08-31 18:42:00,
2013-08-31 14:48:00,85.3,74.8,29.89,East,94,4.0,5.0,71,0.00,,,0.02,Wunderground v.1.15,2013-08-31 18:48:00,
2013-08-31 14:54:00,85.6,73.8,29.89,South,170,4.0,6.0,68,0.00,,,0.02,Wunderground v.1.15,2013-08-31 18:54:00,
2013-08-31 15:00:00,86.3,74.5,29.88,SE,126,6.0,6.0,68,0.00,,,0.02,Wunderground v.1.15,2013-08-31 19:00:00,
2013-08-31 15:06:00,86.5,74.2,29.88,South,176,6.0,8.0,67,0.00,,,0.02,Wunderground v.1.15,2013-08-31 19:06:00,
2013-08-31 15:12:00,86.9,73.7,29.87,SE,133,6.0,7.0,65,0.00,,,0.02,Wunderground v.1.15,2013-08-31 19:12:00,
2013-08-31 15:18:00,86.7,74.4,29.87,SE,145,7.0,8.0,67,0.00,,,0.02,Wunderground v.1.15,2013-08-31 19:18:00,
2013-08-31 15:24:00,86.6,73.9,29.86,ESE,121,7.0,7.0,66,0.00,,,0.02,Wunderground v.1.15,2013-08-31 19:24:00,
2013-08-31 15:30:00,87.2,74.5,29.86,East,86,5.0,5.0,66,0.00,,,0.02,Wunderground v.1.15,2013-08-31 19:30:00,
2013-08-31 15:36:00,87.4,73.7,29.86,SSE,149,5.0,6.0,64,0.00,,,0.02,Wunderground v.1.15,2013-08-31 19:36:00,
2013-08-31 15:42:00,87.5,73.8,29.86,SSW,199,6.0,8.0,64,0.00,,,0.02,Wunderground v.1.15,2013-08-31 19:42:00,
2013-08-31 15:48:00,87.7,73.5,29.85,South,177,6.0,8.0,63,0.00,,,0.02,Wunderground v.1.15,2013-08-31 19:48:00,
2013-08-31 15:54:00,87.9,73.3,29.85,SW,215,6.0,7.0,62,0.00,,,0.02,Wunderground v.1.15,2013-08-31 19:54:00,
2013-08-31 16:02:00,88.0,73.3,29.86,South,186,5.0,5.0,62,0.00,,,0.02,Wunderground v.1.15,2013-08-31 20:02:00,
2013-08-31 16:08:00,88.3,73.6,29.85,SSW,204,4.0,4.0,62,0.00,,,0.02,Wunderground v.1.15,2013-08-31 20:08:00,
2013-08-31 16:14:00,88.7,74.0,29.85,South,177,3.0,6.0,62,0.00,,,0.02,Wunderground v.1.15,2013-08-31 20:14:00,
2013-08-31 16:20:00,88.6,73.9,29.85,South,171,4.0,5.0,62,0.00,,,0.02,Wunderground v.1.15,2013-08-31 20:20:00,
2013-08-31 16:26:00,88.5,72.3,29.85,SSW,205,4.0,8.0,59,0.00,,,0.02,Wunderground v.1.15,2013-08-31 20:26:00,
2013-08-31 16:32:00,88.2,73.0,29.85,SW,215,4.0,7.0,61,0.00,,,0.02,Wunderground v.1.15,2013-08-31 20:32:00,
2013-08-31 16:38:00,88.7,73.0,29.84,South,191,4.0,7.0,60,0.00,,,0.02,Wunderground v.1.15,2013-08-31 20:38:00,
2013-08-31 16:44:00,89.1,73.4,29.84,NE,53,2.0,4.0,60,0.00,,,0.02,Wunderground v.1.15,2013-08-31 20:44:00,
2013-08-31 16:50:00,89.9,73.7,29.84,SSW,210,1.0,4.0,59,0.00,,,0.02,Wunderground v.1.15,2013-08-31 20:50:00,
2013-08-31 16:56:00,89.2,72.5,29.83,SSW,198,3.0,5.0,58,0.00,,,0.02,Wunderground v.1.15,2013-08-31 20:56:00,
2013-08-31 17:02:00,88.1,71.5,29.83,South,173,5.0,8.0,58,0.00,,,0.02,Wunderground v.1.15,2013-08-31 21:02:00,
2013-08-31 17:08:00,88.3,72.7,29.83,SE,127,4.0,8.0,60,0.00,,,0.02,Wunderground v.1.15,2013-08-31 21:08:00,
2013-08-31 17:14:00,87.8,72.2,29.83,South,173,4.0,6.0,60,0.00,,,0.02,Wunderground v.1.15,2013-08-31 21:14:00,
2013-08-31 17:20:00,88.0,72.4,29.82,ESE,113,4.0,4.0,60,0.00,,,0.02,Wunderground v.1.15,2013-08-31 21:20:00,
2013-08-31 17:26:00,88.5,72.8,29.82,South,169,3.0,5.0,60,0.00,,,0.02,Wunderground v.1.15,2013-08-31 21:26:00,
2013-08-31 17:32:00,88.3,73.1,29.83,SSE,150,4.0,4.0,61,0.00,,,0.02,Wunderground v.1.15,2013-08-31 21:32:00,
2013-08-31 17:38:00,88.3,72.2,29.83,SSE,149,5.0,8.0,59,0.00,,,0.02,Wunderground v.1.15,2013-08-31 21:38:00,
2013-08-31 17:44:00,88.4,72.7,29.83,South,184,5.0,6.0,60,0.00,,,0.02,Wunderground v.1.15,2013-08-31 21:44:00,
2013-08-31 17:50:00,88.0,72.9,29.83,SE,132,5.0,5.0,61,0.00,,,0.02,Wunderground v.1.15,2013-08-31 21:50:00,
2013-08-31 17:56:00,88.1,72.5,29.83,South,190,4.0,5.0,60,0.00,,,0.02,Wunderground v.1.15,2013-08-31 21:56:00,
2013-08-31 18:02:00,88.3,72.7,29.83,South,183,3.0,3.0,60,0.00,,,0.02,Wunderground v.1.15,2013-08-31 22:02:00,
2013-08-31 18:08:00,88.5,72.8,29.83,South,175,2.0,4.0,60,0.00,,,0.02,Wunderground v.1.15,2013-08-31 22:08:00,
2013-08-31 18:14:00,88.1,73.0,29.83,SSE,166,4.0,5.0,61,0.00,,,0.02,Wunderground v.1.15,2013-08-31 22:14:00,
2013-08-31 18:20:00,88.1,73.0,29.83,SE,135,4.0,7.0,61,0.00,,,0.02,Wunderground v.1.15,2013-08-31 22:20:00,
2013-08-31 18:26:00,87.9,73.3,29.83,SSW,198,5.0,7.0,62,0.00,,,0.02,Wunderground v.1.15,2013-08-31 22:26:00,
2013-08-31 18:32:00,87.2,72.6,29.83,SSE,159,4.0,7.0,62,0.00,,,0.02,Wunderground v.1.15,2013-08-31 22:32:00,
2013-08-31 18:38:00,86.6,72.5,29.84,South,190,4.0,7.0,63,0.00,,,0.02,Wunderground v.1.15,2013-08-31 22:38:00,
2013-08-31 18:44:00,86.5,72.4,29.84,SSW,198,3.0,4.0,63,0.00,,,0.02,Wunderground v.1.15,2013-08-31 22:44:00,
2013-08-31 18:50:00,86.5,72.9,29.84,SSW,197,2.0,3.0,64,0.00,,,0.02,Wunderground v.1.15,2013-08-31 22:50:00,
2013-08-31 18:56:00,86.4,72.8,29.84,SSW,193,2.0,3.0,64,0.00,,,0.02,Wunderground v.1.15,2013-08-31 22:56:00,
2013-08-31 19:02:00,86.0,72.9,29.84,South,190,2.0,2.0,65,0.00,,,0.02,Wunderground v.1.15,2013-08-31 23:02:00,
2013-08-31 19:08:00,85.6,73.4,29.84,South,187,2.0,2.0,67,0.00,,,0.02,Wunderground v.1.15,2013-08-31 23:08:00,
2013-08-31 19:14:00,85.1,73.3,29.84,SSW,210,3.0,3.0,68,0.00,,,0.02,Wunderground v.1.15,2013-08-31 23:14:00,
2013-08-31 19:20:00,84.8,73.1,29.84,SSW,195,2.0,2.0,68,0.00,,,0.02,Wunderground v.1.15,2013-08-31 23:20:00,
2013-08-31 19:26:00,84.5,73.2,29.83,South,183,2.0,3.0,69,0.00,,,0.02,Wunderground v.1.15,2013-08-31 23:26:00,
2013-08-31 19:32:00,84.1,73.3,29.84,South,187,2.0,2.0,70,0.00,,,0.02,Wunderground v.1.15,2013-08-31 23:32:00,
2013-08-31 19:38:00,83.9,73.9,29.84,SW,219,1.0,2.0,72,0.00,,,0.02,Wunderground v.1.15,2013-08-31 23:38:00,
2013-08-31 19:44:00,83.5,74.7,29.85,NNE,30,0.0,1.0,75,0.00,,,0.02,Wunderground v.1.15,2013-08-31 23:44:00,
2013-08-31 19:50:00,82.9,73.8,29.86,NNE,14,1.0,1.0,74,0.00,,,0.02,Wunderground v.1.15,2013-08-31 23:50:00,
2013-08-31 19:56:00,82.7,74.4,29.86,North,6,1.0,2.0,76,0.00,,,0.02,Wunderground v.1.15,2013-08-31 23:56:00,
2013-08-31 20:02:00,82.5,73.8,29.87,WSW,247,3.0,5.0,75,0.00,,,0.02,Wunderground v.1.15,2013-09-01 00:02:00,
2013-08-31 20:07:00,81.8,72.3,29.87,NNW,347,6.0,8.0,73,0.00,,,0.02,Wunderground v.1.15,2013-09-01 00:07:00,
2013-08-31 20:14:00,81.3,70.6,29.88,NNW,335,6.0,10.0,70,0.00,,,0.02,Wunderground v.1.15,2013-09-01 00:14:00,
2013-08-31 20:20:00,80.8,70.5,29.88,North,349,5.0,5.0,71,0.00,,,0.02,Wunderground v.1.15,2013-09-01 00:20:00,
2013-08-31 20:26:00,80.3,70.0,29.88,NW,321,4.0,5.0,71,0.00,,,0.02,Wunderground v.1.15,2013-09-01 00:26:00,
2013-08-31 20:32:00,79.8,69.6,29.88,NNW,347,2.0,3.0,71,0.00,,,0.02,Wunderground v.1.15,2013-09-01 00:32:00,
2013-08-31 20:37:00,79.6,69.8,29.88,NW,325,1.0,5.0,72,0.00,,,0.02,Wunderground v.1.15,2013-09-01 00:37:00,
2013-08-31 20:43:00,79.2,69.8,29.88,NNW,340,2.0,5.0,73,0.00,,,0.02,Wunderground v.1.15,2013-09-01 00:43:00,
2013-08-31 20:50:00,79.0,69.6,29.88,West,260,2.0,2.0,73,0.00,,,0.02,Wunderground v.1.15,2013-09-01 00:50:00,
2013-08-31 20:56:00,78.6,69.6,29.89,NW,321,1.0,3.0,74,0.00,,,0.02,Wunderground v.1.15,2013-09-01 00:56:00,
2013-08-31 21:02:00,78.3,69.3,29.89,West,265,2.0,3.0,74,0.00,,,0.02,Wunderground v.1.15,2013-09-01 01:02:00,
2013-08-31 21:08:00,78.1,69.1,29.89,NW,317,2.0,3.0,74,0.00,,,0.02,Wunderground v.1.15,2013-09-01 01:08:00,
2013-08-31 21:14:00,77.9,69.3,29.89,WNW,298,1.0,2.0,75,0.00,,,0.02,Wunderground v.1.15,2013-09-01 01:14:00,
2013-08-31 21:20:00,77.6,69.4,29.89,NW,325,1.0,1.0,76,0.00,,,0.02,Wunderground v.1.15,2013-09-01 01:20:00,
2013-08-31 21:26:00,77.4,69.2,29.89,NW,316,2.0,2.0,76,0.00,,,0.02,Wunderground v.1.15,2013-09-01 01:26:00,
2013-08-31 21:32:00,77.3,69.5,29.88,NW,314,2.0,3.0,77,0.00,,,0.02,Wunderground v.1.15,2013-09-01 01:32:00,
2013-08-31 21:38:00,77.1,69.7,29.88,NNW,335,2.0,4.0,78,0.00,,,0.02,Wunderground v.1.15,2013-09-01 01:38:00,
2013-08-31 21:44:00,76.9,69.5,29.90,West,281,3.0,7.0,78,0.00,,,0.02,Wunderground v.1.15,2013-09-01 01:44:00,
2013-08-31 21:50:00,76.7,69.3,29.90,NW,304,6.0,9.0,78,0.00,,,0.02,Wunderground v.1.15,2013-09-01 01:50:00,
2013-08-31 21:56:00,77.0,68.5,29.90,WNW,288,10.0,11.0,75,0.00,,,0.02,Wunderground v.1.15,2013-09-01 01:56:00,
2013-08-31 22:02:00,76.5,68.0,29.91,WNW,297,15.0,15.0,75,0.00,,,0.02,Wunderground v.1.15,2013-09-01 02:02:00,
2013-08-31 22:08:00,75.6,69.0,29.92,SW,217,13.0,19.0,80,0.00,,,0.02,Wunderground v.1.15,2013-09-01 02:08:00,
2013-08-31 22:13:00,73.1,69.0,29.93,West,260,11.0,13.0,87,1.80,,,0.11,Wunderground v.1.15,2013-09-01 02:13:00,
2013-08-31 22:20:00,71.4,68.6,29.93,SSW,211,9.0,9.0,91,1.78,,,0.27,Wunderground v.1.15,2013-09-01 02:20:00,
2013-08-31 22:26:00,70.9,68.5,29.93,SW,229,8.0,11.0,92,1.35,,,0.44,Wunderground v.1.15,2013-09-01 02:26:00,
2013-08-31 22:31:00,70.6,68.5,29.93,SW,218,7.0,10.0,93,0.51,,,0.52,Wunderground v.1.15,2013-09-01 02:31:00,
2013-08-31 22:38:00,70.4,68.6,29.92,SSW,195,6.0,10.0,94,0.42,,,0.56,Wunderground v.1.15,2013-09-01 02:38:00,
2013-08-31 22:44:00,70.4,68.6,29.92,ESE,106,4.0,5.0,94,0.30,,,0.59,Wunderground v.1.15,2013-09-01 02:44:00,
2013-08-31 22:50:00,70.5,68.7,29.91,SSE,162,4.0,4.0,94,0.25,,,0.61,Wunderground v.1.15,2013-09-01 02:50:00,
2013-08-31 22:56:00,70.6,69.1,29.90,East,84,2.0,4.0,95,0.09,,,0.62,Wunderground v.1.15,2013-09-01 02:56:00,
2013-08-31 23:02:00,70.7,69.2,29.90,SSW,203,1.0,2.0,95,0.08,,,0.62,Wunderground v.1.15,2013-09-01 03:02:00,
2013-08-31 23:08:00,70.6,68.8,29.90,SSW,204,1.0,2.0,94,0.04,,,0.62,Wunderground v.1.15,2013-09-01 03:08:00,
2013-08-31 23:14:00,70.6,69.1,29.91,SE,126,1.0,2.0,95,0.00,,,0.63,Wunderground v.1.15,2013-09-01 03:14:00,
2013-08-31 23:20:00,70.9,69.4,29.90,NE,56,1.0,4.0,95,0.10,,,0.64,Wunderground v.1.15,2013-09-01 03:20:00,
2013-08-31 23:25:00,71.1,69.6,29.91,ENE,73,2.0,4.0,95,0.10,,,0.65,Wunderground v.1.15,2013-09-01 03:25:00,
2013-08-31 23:31:00,71.3,69.5,29.91,East,83,2.0,5.0,94,0.09,,,0.65,Wunderground v.1.15,2013-09-01 03:31:00,
2013-08-31 23:37:00,71.3,69.2,29.91,NE,54,4.0,6.0,93,0.09,,,0.66,Wunderground v.1.15,2013-09-01 03:37:00,
2013-08-31 23:44:00,71.2,69.1,29.91,NE,49,4.0,6.0,93,0.08,,,0.67,Wunderground v.1.15,2013-09-01 03:44:00,
2013-08-31 23:49:00,71.2,69.1,29.90,East,88,3.0,3.0,93,0.06,,,0.67,Wunderground v.1.15,2013-09-01 03:49:00,
2013-08-31 23:56:00,70.9,68.8,29.90,East,95,1.0,3.0,93,0.04,,,0.67,Wunderground v.1.15,2013-09-01 03:56:00,